TimeEDT,TemperatureF,Dew PointF,Humidity,Sea Level PressureIn,VisibilityMPH,Wind Direction,Wind SpeedMPH,Gust SpeedMPH,PrecipitationIn,Events,Conditions,WindDirDegrees,DateUTC
12:51 AM,37.0,36.0,96,30.10,10.0,Calm,Calm,-,N/A,,Clear,0,2013-10-04 04:51:00
1:51 AM,34.0,33.1,96,30.09,10.0,Calm,Calm,-,N/A,,Clear,0,2013-10-04 05:51:00
2:40 AM,35.6,35.6,100,30.07,10.0,Calm,Calm,-,N/A,,Scattered Clouds,0,2013-10-04 06:40:00
2:49 AM,35.6,35.6,100,30.07,9.0,Calm,Calm,-,N/A,,Mostly Cloudy,0,2013-10-04 06:49:00
2:51 AM,35.1,35.1,100,30.08,9.0,Calm,Calm,-,N/A,,Mostly Cloudy,0,2013-10-04 06:51:00
3:46 AM,35.6,33.8,93,30.07,1.8,Calm,Calm,-,N/A,,Overcast,0,2013-10-04 07:46:00
3:51 AM,35.1,34.0,96,30.07,1.8,Calm,Calm,-,N/A,,Mostly Cloudy,0,2013-10-04 07:51:00
3:55 AM,35.6,33.8,93,30.06,3.0,Calm,Calm,-,N/A,,Mostly Cloudy,0,2013-10-04 07:55:00
4:02 AM,33.8,33.8,100,30.07,1.8,Calm,Calm,-,N/A,,Mostly Cloudy,0,2013-10-04 08:02:00
4:09 AM,33.8,33.8,100,30.07,2.5,Calm,Calm,-,N/A,,Scattered Clouds,0,2013-10-04 08:09:00
4:17 AM,33.8,33.8,100,30.07,9.0,Calm,Calm,-,N/A,,Scattered Clouds,0,2013-10-04 08:17:00
4:27 AM,35.6,33.8,93,30.07,9.0,Calm,Calm,-,N/A,,Mostly Cloudy,0,2013-10-04 08:27:00
4:41 AM,35.6,33.8,93,30.07,1.8,Calm,Calm,-,N/A,,Overcast,0,2013-10-04 08:41:00
4:44 AM,35.6,33.8,93,30.07,0.8,Calm,Calm,-,N/A,,Mist,0,2013-10-04 08:44:00
4:51 AM,34.0,34.0,100,30.09,0.2,Calm,Calm,-,N/A,Fog,Fog,0,2013-10-04 08:51:00
5:03 AM,33.8,33.8,100,30.07,1.0,Calm,Calm,-,N/A,,Mist,0,2013-10-04 09:03:00
5:07 AM,33.8,33.8,100,30.08,3.0,Calm,Calm,-,N/A,,Overcast,0,2013-10-04 09:07:00
5:51 AM,34.0,34.0,100,30.09,10.0,Calm,Calm,-,N/A,,Mostly Cloudy,0,2013-10-04 09:51:00
6:04 AM,35.6,35.6,100,30.07,10.0,Calm,Calm,-,N/A,,Mostly Cloudy,0,2013-10-04 10:04:00
6:25 AM,35.6,33.8,93,30.07,1.2,Calm,Calm,-,N/A,,Mostly Cloudy,0,2013-10-04 10:25:00
6:30 AM,35.6,33.8,93,30.07,4.0,Calm,Calm,-,N/A,,Mostly Cloudy,0,2013-10-04 10:30:00
6:40 AM,35.6,33.8,93,30.07,9.0,Calm,Calm,-,N/A,,Scattered Clouds,0,2013-10-04 10:40:00
6:51 AM,34.0,33.1,96,30.10,2.5,Calm,Calm,-,N/A,,Partly Cloudy,0,2013-10-04 10:51:00
6:53 AM,33.8,33.8,100,30.07,0.8,Calm,Calm,-,N/A,,Mist,0,2013-10-04 10:53:00
6:58 AM,33.8,33.8,100,30.08,0.2,Calm,Calm,-,N/A,Fog,Fog,0,2013-10-04 10:58:00
7:06 AM,33.8,33.8,100,30.07,1.0,Calm,Calm,-,N/A,,Mist,0,2013-10-04 11:06:00
7:10 AM,33.8,33.8,100,30.07,2.5,Calm,Calm,-,N/A,,Scattered Clouds,0,2013-10-04 11:10:00
7:15 AM,35.6,33.8,93,30.07,1.8,Calm,Calm,-,N/A,,Mostly Cloudy,0,2013-10-04 11:15:00
7:29 AM,35.6,35.6,100,30.07,0.5,Calm,Calm,-,N/A,Fog,Fog,0,2013-10-04 11:29:00
7:40 AM,37.4,37.4,100,30.08,2.0,Calm,Calm,-,N/A,,Mostly Cloudy,0,2013-10-04 11:40:00
7:44 AM,37.4,37.4,100,30.09,6.0,Calm,Calm,-,N/A,,Scattered Clouds,0,2013-10-04 11:44:00
7:51 AM,37.9,37.9,100,30.12,7.0,Calm,Calm,-,N/A,,Partly Cloudy,0,2013-10-04 11:51:00
8:51 AM,46.9,46.0,97,30.12,10.0,Calm,Calm,-,N/A,,Clear,0,2013-10-04 12:51:00
9:51 AM,51.1,46.9,86,30.12,10.0,ENE,5.8,-,N/A,,Overcast,60,2013-10-04 13:51:00
10:51 AM,55.0,48.9,80,30.12,10.0,NE,6.9,-,0.00,,Overcast,50,2013-10-04 14:51:00
11:51 AM,57.9,48.9,72,30.10,10.0,ENE,6.9,-,N/A,,Overcast,70,2013-10-04 15:51:00
12:51 PM,60.1,48.9,67,30.09,10.0,NNE,8.1,-,N/A,,Overcast,30,2013-10-04 16:51:00
1:51 PM,57.9,50.0,75,30.09,8.0,ENE,6.9,-,0.01,Rain,Light Rain,70,2013-10-04 17:51:00
2:51 PM,57.9,52.0,81,30.08,10.0,East,5.8,-,0.00,,Overcast,90,2013-10-04 18:51:00
3:51 PM,57.9,52.0,81,30.07,10.0,ENE,6.9,-,N/A,,Overcast,70,2013-10-04 19:51:00
4:51 PM,57.0,51.1,81,30.08,10.0,East,3.5,-,N/A,,Overcast,80,2013-10-04 20:51:00
5:51 PM,55.0,53.1,93,30.10,9.0,Calm,Calm,-,N/A,,Overcast,0,2013-10-04 21:51:00
6:01 PM,55.4,53.6,94,30.08,10.0,Calm,Calm,-,N/A,,Overcast,0,2013-10-04 22:01:00
6:51 PM,55.0,46.9,74,30.09,10.0,ENE,5.8,-,N/A,,Overcast,70,2013-10-04 22:51:00
7:51 PM,54.0,48.0,80,30.10,10.0,Calm,Calm,-,N/A,,Overcast,0,2013-10-04 23:51:00
8:51 PM,53.1,46.9,80,30.10,10.0,NE,6.9,-,N/A,,Overcast,50,2013-10-05 00:51:00
9:51 PM,53.1,46.9,80,30.10,10.0,NE,4.6,-,N/A,,Overcast,50,2013-10-05 01:51:00
10:51 PM,53.1,46.0,77,30.09,10.0,SE,3.5,-,N/A,,Overcast,140,2013-10-05 02:51:00
11:18 PM,51.8,44.6,76,30.08,10.0,Calm,Calm,-,N/A,,Overcast,0,2013-10-05 03:18:00
11:51 PM,52.0,45.0,77,30.09,10.0,NNE,3.5,-,N/A,,Overcast,30,2013-10-05 03:51:00